Location: Newark
(45.2500°N, 7.5833°E)
Time: 10:46:19
(UTC+00:00)

SR - Pass Details

Date: 28 January 2020
Orbit: 575 x 880 km, 66.7° (Epoch: 22 February)

Event Time Altitude Azimuth Distance (km) Brightness Sun altitude
Exits shadow 05:20:48 10° 333° (NNW) 2,464 ? -16.6°
Reaches altitude 10° 05:20:53 10° 333° (NNW) 2,436 ? -16.6°
Maximum altitude 05:26:26 60° 53° (NE) 893 ? -15.7°
Drops below altitude 10° 05:31:30 10° 133° (SE) 2,228 ? -14.8°
Sets 05:33:47 0° 137° (SE) 3,097 ? -14.4°
